Printer-friendly version

IAU Minor Planet Center

Minor Planet Center

MPEC 2005-M60 : 2005 MF5

The following Minor Planet Electronic Circular may be linked-to from your own Web pages, but must not otherwise be redistributed electronically.


Read MPEC 2005-M59 Read MPEC 2005-M61


M.P.E.C. 2005-M60                                Issued 2005 June 28, 10:53 UT

     The Minor Planet Electronic Circulars contain information on unusual
         minor planets and routine data on comets.  They are published
   on behalf of Commission 20 of the International Astronomical Union by the
          Minor Planet Center, Smithsonian Astrophysical Observatory,
                          Cambridge, MA 02138, U.S.A.

                  Supported in part by the Brinson Foundation
             Prepared using the Tamkin Foundation Computer Network

                              MPC@CFA.HARVARD.EDU
          URL http://cfa-www.harvard.edu/iau/mpc.html  ISSN 1523-6714

                                   2005 MF5

Observations:
     K05M05F* C2005 06 27.20917 16 12 41.30 +09 43 36.3          18.5 R EM060699
     K05M05F  C2005 06 27.23112 16 12 27.03 +09 39 52.9                 EM060699
     K05M05F  C2005 06 27.25305 16 12 12.92 +09 36 10.2                 EM060699
     K05M05F  C2005 06 27.27499 16 11 58.62 +09 32 25.1                 EM060699
     K05M05F  C2005 06 27.30958 16 11 36.37 +09 26 31.9          18.8 R EM060699
     K05M05F  C2005 06 27.31042 16 11 35.89 +09 26 24.0                 EM060699
     K05M05F  C2005 06 27.31126 16 11 35.33 +09 26 14.8                 EM060699
     K05M05F  C2005 06 27.31210 16 11 34.83 +09 26 05.5                 EM060699
     K05M05F  C2005 06 27.88176 16 05 43.98 +07 48 56.7          18.5 V EM060A50
     K05M05F  C2005 06 27.88296 16 05 43.23 +07 48 44.2          18.9 V EM060A50
     K05M05F  C2005 06 27.88427 16 05 42.40 +07 48 31.8          18.8 V EM060A50
     K05M05F  C2005 06 27.93275 16 05 12.82 +07 40 17.0          19.1 V EM060198
     K05M05F  C2005 06 27.93559 16 05 11.00 +07 39 48.1          19.1 V EM060198
     K05M05F  C2005 06 27.93770 16 05 09.67 +07 39 26.4          19.0 V EM060198
     K05M05F  C2005 06 27.93996 16 05 08.24 +07 39 03.3          19.0 V EM060198
     K05M05F  C2005 06 27.94118 16 05 07.47 +07 38 50.5          19.1 V EM060198
     K05M05F  C2005 06 27.97422 16 04 47.23 +07 33 11.5                 EM060J95
     K05M05F  C2005 06 27.98696 16 04 39.18 +07 31 00.0                 EM060J95
     K05M05F  C2005 06 27.99046 16 04 37.10 +07 30 23.0          19.0 R EM060J95
     K05M05F  C2005 06 28.22961 16 02 11.42 +06 49 50.4          19.1 R EM060649
     K05M05F  C2005 06 28.23176 16 02 10.10 +06 49 27.6          18.7 R EM060649
     K05M05F  C2005 06 28.23392 16 02 08.68 +06 49 07.1          19.3 R EM060649
     K05M05F  C2005 06 28.23607 16 02 07.29 +06 48 43.9          18.9 R EM060649
     K05M05F  C2005 06 28.23839 16 02 06.73 +06 48 28.7          19.0 R EM060854
     K05M05F  C2005 06 28.24187 16 02 04.62 +06 47 52.4          19.0 R EM060854
     K05M05F 2C2005 06 28.26977 16 01 46.67 +06 43 07.6          19.0 R EM060H06
     K05M05F 2C2005 06 28.27306 16 01 44.55 +06 42 34.7          19.3 R EM060H06
     K05M05F 2C2005 06 28.27415 16 01 43.87 +06 42 21.7          19.0 R EM060H06
     K05M05F 2C2005 06 28.27962 16 01 40.54 +06 41 25.7          18.1 R EM060H06
     K05M05F 2C2005 06 28.28290 16 01 38.49 +06 40 53.1          18.7 R EM060H06

Observer details:
198 Wildberg.  Observer R. Apitzsch.  0.35-m f/4.2 reflector + CCD.
649 Powell Observatory, Louisburg.  Observers R. Trentman, R. Fredrick.
    0.75-m Newtonian reflector + CCD.
699 Lowell Observatory-LONEOS.  Observer B. A. Skiff.  0.59-m LONEOS Schmidt
    + CCD.
854 Sabino Canyon Observatory, Tucson.  Observer J. E. McGaha.  0.36-m f/10.0
    Schmidt-Cassegrain + CCD.
A50 Andrushivka Astronomical Observatory.  Observers Y. Ivashchenko,
    D. Kyrylenko.  0.6-m f/2.0 reflector + CCD.
H06 New Mexico Skies Observatory.  Observer R. Hutsebaut.  0.25-m reflector
    + CCD.
J95 Great Shefford.  Observer P. Birtwhistle.  0.40-m f/6.0 Schmidt-Cassegrain
    + CCD.

Orbital elements:
2005 MF5
Epoch 2005 June 19.0 TT = JDT 2453540.5                 MPC
M 175.75914              (2000.0)            P               Q
n   1.36817084     Peri.  349.75994     +0.01339342     -0.87887439
a   0.8036048      Node    98.22495     +0.94809910     -0.14036163
e   0.3795925      Incl.   28.80442     +0.31769281     +0.45593687
P   0.72           H   21.8           G   0.15
From 30 observations 2005 June 27-28.

Ephemeris:
2005 MF5                 a,e,i = 0.80, 0.38, 29                  q = 0.4986
Date    TT    R. A. (2000) Decl.     Delta      r     Elong.  Phase     V
2005 06 29    15 54.52   +04 39.6    0.127    1.106   132.6    42.6    19.2
2005 07 09    14 34.38   -18 52.7    0.162    1.096   115.3    57.0    20.1
2005 07 19    13 47.65   -31 28.6    0.222    1.076    99.5    68.7    21.1
2005 07 29    13 20.27   -38 17.1    0.288    1.046    88.1    75.9    21.8
2005 08 08    13 02.17   -42 31.9    0.350    1.008    79.0    81.0    22.4

Timothy B. Spahr             (C) Copyright 2005 MPC           M.P.E.C. 2005-M60

Read MPEC 2005-M59 Read MPEC 2005-M61


Our Web policy. Index to the CBAT/MPC/ICQ pages.


Valid HTML 4.01!